Regional Weather Roundup
Issued by NWS Green Bay, WI

Home | Current Version | Previous Version | Graphics & Text | Print | Product List | Glossary Off
Versions: 1 2 3 4 5 6 7 8 9 10 11 12 13 14 15 16 17 18 19 20 21 22 23 24 25 26 27 28 29 30 31 32 33 34 35 36 37 38 39 40 41 42 43 44 45 46 47 48 49 50

000
ASUS43 KGRB 230459
RWRGRB

NORTH-CENTRAL AND NORTHEAST WISCONSIN REGIONAL WEATHER ROUNDUP
NATIONAL WEATHER SERVICE GREEN BAY WI
1200 AM CDT WED JUL 23 2014

WIZ005-009-010>012-018-019-230600-
NORTH CENTRAL WISCONSIN

CITY           SKY/WX    TMP DP  RH WIND       PRES   REMARKS
IRONWOOD       NOT AVBL
MANITOWISH WTR NOT AVBL
ARBOR VITAE    NOT AVBL
EAGLE RIVER    NOT AVBL
LAND O LAKES   NOT AVBL
RHINELANDER    CLEAR     58  56  93 CALM      30.15R
PHILLIPS       NOT AVBL
ANTIGO         NOT AVBL
TOMAHAWK       NOT AVBL
MERRILL        NOT AVBL
$$

WIZ013-073-230600-
NORTHEAST WISCONSIN

CITY           SKY/WX    TMP DP  RH WIND       PRES   REMARKS
IRON MOUNTAIN  CLEAR     58  55  90 NW7       30.10R
MARINETTE      CLEAR     63  54  72 N8        30.07R
$$

WIZ017-030-035>037-045-230600-
CENTRAL WISCONSIN

CITY           SKY/WX    TMP DP  RH WIND       PRES   REMARKS
MEDFORD        NOT AVBL
WAUSAU         PTCLDY    64  58  80 N8        30.11R
MOSINEE        NOT AVBL
MARSHFIELD     CLEAR     65  57  75 N9        30.12R
WISC RAPIDS    CLEAR     67  59  75 NE10      30.12R
STEVENS POINT  NOT AVBL
WAUPACA        NOT AVBL
SHAWANO        NOT AVBL
CLINTONVILLE   NOT AVBL
$$

WIZ038-039-048-051-230600-
FOX VALLEY

CITY           SKY/WX    TMP DP  RH WIND       PRES   REMARKS
NWS GREEN BAY  CLEAR     65  56  72 N10       30.08R
APPLETON       NOT AVBL
OSHKOSH        CLEAR     69  58  67 N14G26    30.08R
FOND DU LAC    PTCLDY    69  59  70 N14G23    30.08R
$$

WIZ022-050-052-230600-
EAST CENTRAL WISCONSIN

CITY           SKY/WX    TMP DP  RH WIND       PRES   REMARKS
STURGEON BAY   CLEAR     64  54  68 N17       30.07R
MANITOWOC      NOT AVBL
SHEBOYGAN      MOCLDY    68  59  73 NE12      30.06R
$$

LMZ563-521-522-541>543-230600-
LAKESHORE

STATION/POSITION TIME  TEMP    WIND        PRES    VSBY  WAVE
                       AIR SEA DIR/SP/G                  HT/PER
                 (UTC) (F)     (DEG/KT/KT) (MB)    (MI)  (FT/S)
SHEBOYGAN LKSHOR 0400           40/ 21/ 22 1016.9R
KEWAUNEE LKSHORE 0400   60      10/  5/  8 1018.6R
NORTHPORT PIER   0400   65     350/ 19/ 22 1017.9R
N MID LAKE BUOY  0400   59 54  340/ 16/ 19 1016.3R         4/ 6
CHAMBERS ISLAND  0400   65     340/ 10/ 13 1018.3R
MENOMINEE LKSHOR 0400   58     340/ 12/ 15 1018.8R
$$


USA.gov is the U.S. government's official web portal to all federal, state and local government web resources and services.